GW5395 Weather Reports


time (UTC)temp
C
wind
direction
speed
KPH
gust
KPH
rain 1hr
cm
rain 24hr
cm
rain mn
cm
humidity
%
barometer
mb
20260508202231 25 54 22.5 24.1 0.00 0.00 0.00
20260508201718 24 62 20.9 24.1 0.00 0.00 0.00
20260508201213 25 55 20.9 24.1 0.00 0.00 0.00
20260508200707 25 54 19.3 22.5 0.00 0.00 0.00
20260508200200 25 58 20.9 22.5 0.00 0.00 0.00
20260508195654 24 55 20.9 24.1 0.00 0.00 0.00
20260508195148 25 57 20.9 24.1 0.00 0.00 0.00
20260508194644 24 57 20.9 24.1 0.00 0.00 0.00
20260508194136 25 61 19.3 22.5 0.00 0.00 0.00
20260508193631 25 64 19.3 22.5 0.00 0.00 0.00
20260508192618 24 63 20.9 22.5 0.00 0.00 0.00
20260508192113 24 55 20.9 22.5 0.00 0.00 0.00
20260508191607 24 47 19.3 22.5 0.00 0.00 0.00
20260508191101 24 59 20.9 22.5 0.00 0.00 0.00
20260508190554 24 61 19.3 22.5 0.00 0.00 0.00
20260508190048 24 50 19.3 20.9 0.00 0.00 0.00
20260508185037 24 54 20.9 22.5 0.00 0.00 0.00
20260508184530 24 61 20.9 24.1 0.00 0.00 0.00
20260508184025 24 58 19.3 22.5 0.00 0.00 0.00
20260508183519 24 59 20.9 22.5 0.00 0.00 0.00
20260508183012 24 53 19.3 22.5 0.00 0.00 0.00
20260508182515 24 70 16.1 19.3 0.00 0.00 0.00
20260508182021 24 64 16.1 19.3 0.00 0.00 0.00
20260508181454 24 68 16.1 17.7 0.00 0.00 0.00
20260508180442 24 67 16.1 19.3 0.00 0.00 0.00
20260508175936 24 63 16.1 19.3 0.00 0.00 0.00
20260508175430 24 60 16.1 17.7 0.00 0.00 0.00
20260508174418 23 56 12.9 14.5 0.00 0.00 0.00
20260508173407 23 72 9.7 11.3 0.00 0.00 0.00
20260508172901 23 79 11.3 14.5 0.00 0.00 0.00
20260508172354 23 73 11.3 14.5 0.00 0.00 0.00
20260508171342 23 86 9.7 12.9 0.00 0.00 0.00
20260508170837 23 94 8.0 11.3 0.00 0.00 0.00
20260508170330 23 96 9.7 11.3 0.00 0.00 0.00
20260508165824 23 93 9.7 12.9 0.00 0.00 0.00
20260508164340 22 96 9.7 12.9 0.00 0.00 0.00
20260508163801 22 99 11.3 12.9 0.00 0.00 0.00
20260508162748 22 102 11.3 12.9 0.00 0.00 0.00
20260508162242 21 108 11.3 12.9 0.00 0.00 0.00
20260508161736 21 115 9.7 11.3 0.00 0.00 0.00
20260508161230 21 112 9.7 12.9 0.00 0.00 0.00
20260508160724 21 109 11.3 12.9 0.00 0.00 0.00
20260508160218 21 104 12.9 14.5 0.00 0.00 0.00
20260508155207 21 103 12.9 14.5 0.00 0.00 0.00
20260508154700 21 105 12.9 14.5 0.00 0.00 0.00
20260508154155 21 105 12.9 14.5 0.00 0.00 0.00
20260508153649 21 102 11.3 12.9 0.00 0.00 0.00
20260508153142 22 94 11.3 12.9 0.00 0.00 0.00
20260508152637 22 89 11.3 12.9 0.00 0.00 0.00
20260508152130 21 99 12.9 14.5 0.00 0.00 0.00
20260508151624 21 106 12.9 14.5 0.00 0.00 0.00
20260508151119 21 104 12.9 14.5 0.00 0.00 0.00
20260508150625 21 110 11.3 14.5 0.00 0.00 0.00
20260508150113 21 111 11.3 12.9 0.00 0.00 0.00
20260508145054 21 108 11.3 12.9 0.00 0.00 0.00
20260508144549 21 107 9.7 11.3 0.00 0.00 0.00
20260508144043 21 109 9.7 11.3 0.00 0.00 0.00
20260508143537 21 107 11.3 12.9 0.00 0.00 0.00
20260508143031 22 104 12.9 14.5 0.00 0.00 0.00
20260508142536 22 105 12.9 16.1 0.00 0.00 0.00
20260508142019 21 105 12.9 14.5 0.00 0.00 0.00
20260508141513 21 106 12.9 14.5 0.00 0.00 0.00
20260508141007 21 108 12.9 14.5 0.00 0.00 0.00
20260508140500 21 106 12.9 14.5 0.00 0.00 0.00
20260508135954 21 101 12.9 16.1 0.00 0.00 0.00
20260508135448 21 106 12.9 16.1 0.00 0.00 0.00
20260508134942 21 104 12.9 16.1 0.00 0.00 0.00
20260508134437 21 105 14.5 17.7 0.00 0.00 0.00
20260508133931 21 103 14.5 16.1 0.00 0.00 0.00
20260508133424 21 101 16.1 17.7 0.00 0.00 0.00
20260508132919 22 97 14.5 16.1 0.00 0.00 0.00
20260508132413 21 103 16.1 17.7 0.00 0.00 0.00
20260508131910 21 102 12.9 16.1 0.00 0.00 0.00
20260508131401 22 78 12.9 16.1 0.00 0.00 0.00
20260508130854 22 71 14.5 16.1 0.00 0.00 0.00
20260508124830 22 77 14.5 16.1 0.00 0.00 0.00
20260508124324 22 73 14.5 16.1 0.00 0.00 0.00
20260508123818 22 74 11.3 14.5 0.00 0.00 0.00
20260508123313 22 76 14.5 17.7 0.00 0.00 0.00
20260508122806 22 87 14.5 17.7 0.00 0.00 0.00
20260508122300 22 94 14.5 17.7 0.00 0.00 0.00
20260508121754 22 98 14.5 16.1 0.00 0.00 0.00
20260508121248 22 102 14.5 17.7 0.00 0.00 0.00
20260508120743 22 102 14.5 17.7 0.00 0.00 0.00
20260508120236 22 103 14.5 16.1 0.00 0.00 0.00
20260508115730 22 105 14.5 17.7 0.00 0.00 0.00
20260508115225 22 102 14.5 17.7 0.00 0.00 0.00
20260508114719 22 101 12.9 16.1 0.00 0.00 0.00
20260508114212 22 105 12.9 14.5 0.00 0.00 0.00
20260508113706 22 102 12.9 14.5 0.00 0.00 0.00
20260508113200 22 95 12.9 16.1 0.00 0.00 0.00
20260508112654 22 98 12.9 14.5 0.00 0.00 0.00
20260508112148 22 98 12.9 16.1 0.00 0.00 0.00
20260508111643 22 95 11.3 14.5 0.00 0.00 0.00
20260508111136 22 97 11.3 12.9 0.00 0.00 0.00
20260508110630 22 95 11.3 14.5 0.00 0.00 0.00
20260508110124 22 96 12.9 16.1 0.00 0.00 0.00
20260508105619 22 94 12.9 16.1 0.00 0.00 0.00
20260508105112 22 103 12.9 14.5 0.00 0.00 0.00
20260508104607 22 102 9.7 12.9 0.00 0.00 0.00
20260508104100 22 100 11.3 14.5 0.00 0.00 0.00
20260508103554 23 106 12.9 14.5 0.00 0.00 0.00
20260508103048 23 93 14.5 17.7 0.00 0.00 0.00
20260508102542 23 91 12.9 17.7 0.00 0.00 0.00
20260508102036 23 90 16.1 22.5 0.00 0.00 0.00
20260508101530 23 77 20.9 25.7 0.00 0.00 0.00
20260508101024 23 78 20.9 27.4 0.00 0.00 0.00
20260508100519 23 75 22.5 27.4 0.00 0.00 0.00
20260508100012 23 77 24.1 29.0 0.00 0.00 0.00
20260508095507 23 71 29.0 32.2 0.00 0.00 0.00
20260508095001 23 75 20.9 25.7 0.00 0.00 0.00
20260508094454 23 78 19.3 25.7 0.00 0.00 0.00
20260508093948 23 77 20.9 25.7 0.00 0.00 0.00
20260508093447 23 82 16.1 20.9 0.00 0.00 0.00
20260508092937 23 83 16.1 20.9 0.00 0.00 0.00
20260508092437 23 86 14.5 19.3 0.00 0.00 0.00
20260508091924 23 81 17.7 20.9 0.00 0.00 0.00
20260508091418 23 78 19.3 24.1 0.00 0.00 0.00
20260508090913 23 81 20.9 27.4 0.00 0.00 0.00
20260508090407 23 80 22.5 27.4 0.00 0.00 0.00
20260508085900 23 73 25.7 30.6 0.00 0.00 0.00
20260508085355 23 78 25.7 29.0 0.00 0.00 0.00
20260508084342 23 78 24.1 29.0 0.00 0.00 0.00
20260508083845 23 79 24.1 27.4 0.00 0.00 0.00
20260508083330 23 79 24.1 27.4 0.00 0.00 0.00
20260508082824 23 78 24.1 27.4 0.00 0.00 0.00
20260508082319 23 72 27.4 32.2 0.00 0.00 0.00
20260508081812 23 70 29.0 32.2 0.00 0.00 0.00
20260508081306 23 71 27.4 30.6 0.00 0.00 0.00
20260508080800 23 77 20.9 27.4 0.00 0.00 0.00
20260508080254 23 80 19.3 25.7 0.00 0.00 0.00
20260508075748 23 80 19.3 22.5 0.00 0.00 0.00
20260508075242 23 80 19.3 24.1 0.00 0.00 0.00
20260508074736 23 83 17.7 24.1 0.00 0.00 0.00
20260508074230 23 77 20.9 25.7 0.00 0.00 0.00
20260508073724 23 80 19.3 24.1 0.00 0.00 0.00
20260508073218 23 79 20.9 25.7 0.00 0.00 0.00
20260508072712 23 79 20.9 27.4 0.00 0.00 0.00
20260508072206 23 78 20.9 25.7 0.00 0.00 0.00
20260508071700 23 74 24.1 29.0 0.00 0.00 0.00
20260508071203 23 74 24.1 27.4 0.00 0.00 0.00
20260508070649 23 79 20.9 25.7 0.00 0.00 0.00
20260508070143 23 78 20.9 27.4 0.00 0.00 0.00
20260508065636 24 72 25.7 29.0 0.00 0.00 0.00
20260508065130 24 71 24.1 27.4 0.00 0.00 0.00
20260508064624 24 71 27.4 29.0 0.00 0.00 0.00
20260508064119 23 72 25.7 29.0 0.00 0.00 0.00
20260508063612 24 69 25.7 29.0 0.00 0.00 0.00
20260508063106 24 66 25.7 30.6 0.00 0.00 0.00
20260508062600 23 65 25.7 30.6 0.00 0.00 0.00
20260508062054 24 64 29.0 32.2 0.00 0.00 0.00
20260508061548 24 63 30.6 35.4 0.00 0.00 0.00
20260508061042 24 65 29.0 32.2 0.00 0.00 0.00
20260508060536 24 66 27.4 32.2 0.00 0.00 0.00
20260508060030 24 64 27.4 32.2 0.00 0.00 0.00
20260508055525 24 65 29.0 30.6 0.00 0.00 0.00
20260508055018 24 61 29.0 32.2 0.00 0.00 0.00
20260508054513 24 65 25.7 29.0 0.00 0.00 0.00
20260508054007 24 66 27.4 32.2 0.00 0.00 0.00
20260508053500 24 61 27.4 30.6 0.00 0.00 0.00
20260508052954 24 66 25.7 29.0 0.00 0.00 0.00
20260508052449 24 67 27.4 32.2 0.00 0.00 0.00
20260508051437 24 68 27.4 30.6 0.00 0.00 0.00
20260508050930 24 71 30.6 32.2 0.00 0.00 0.00
20260508050426 24 71 27.4 32.2 0.00 0.00 0.00
20260508045918 24 68 27.4 32.2 0.00 0.00 0.00
20260508045413 24 67 27.4 32.2 0.00 0.00 0.00
20260508044906 24 62 30.6 33.8 0.00 0.00 0.00
20260508044400 24 64 29.0 33.8 0.00 0.00 0.00
20260508043901 24 65 29.0 33.8 0.00 0.00 0.00
20260508043348 24 60 29.0 30.6 0.00 0.00 0.00
20260508042842 24 64 25.7 30.6 0.00 0.00 0.00
20260508042336 24 64 27.4 32.2 0.00 0.00 0.00
20260508041830 24 57 29.0 33.8 0.00 0.00 0.00
20260508041324 24 63 29.0 32.2 0.00 0.00 0.00
20260508040819 24 62 29.0 33.8 0.00 0.00 0.00
20260508040313 24 62 29.0 33.8 0.00 0.00 0.00
20260508035301 24 64 32.2 35.4 0.00 0.00 0.00
20260508034755 24 59 30.6 35.4 0.00 0.00 0.00
20260508034249 24 58 30.6 35.4 0.00 0.00 0.00
20260508033742 24 58 29.0 32.2 0.00 0.00 0.00
20260508033243 24 61 29.0 33.8 0.00 0.00 0.00
20260508032731 24 60 29.0 32.2 0.00 0.00 0.00
20260508032224 24 66 29.0 32.2 0.00 0.00 0.00
20260508031212 25 66 29.0 32.2 0.00 0.00 0.00
20260508030706 25 64 30.6 33.8 0.00 0.00 0.00
20260508030200 24 67 29.0 33.8 0.00 0.00 0.00
20260508025655 24 62 32.2 33.8 0.00 0.00 0.00
20260508025148 24 63 32.2 33.8 0.00 0.00 0.00
20260508024642 25 64 29.0 32.2 0.00 0.00 0.00
20260508024136 25 64 29.0 33.8 0.00 0.00 0.00
20260508023630 25 63 30.6 32.2 0.00 0.00 0.00
20260508023125 25 63 29.0 32.2 0.00 0.00 0.00
20260508022619 25 60 29.0 32.2 0.00 0.00 0.00
20260508022125 25 61 29.0 33.8 0.00 0.00 0.00
20260508021606 25 60 29.0 32.2 0.00 0.00 0.00
20260508021100 25 61 30.6 33.8 0.00 0.00 0.00
20260508020555 25 58 32.2 33.8 0.00 0.00 0.00
20260508020048 25 58 30.6 33.8 0.00 0.00 0.00
20260508015542 25 58 29.0 33.8 0.00 0.00 0.00
20260508015037 25 53 29.0 32.2 0.00 0.00 0.00
20260508014531 25 55 29.0 32.2 0.00 0.00 0.00
20260508014024 25 62 29.0 32.2 0.00 0.00 0.00
20260508013519 25 64 25.7 29.0 0.00 0.00 0.00
20260508013021 25 63 29.0 32.2 0.00 0.00 0.00
20260508012509 25 61 29.0 32.2 0.00 0.00 0.00
20260508012001 25 64 25.7 30.6 0.00 0.00 0.00
20260508011454 25 69 27.4 30.6 0.00 0.00 0.00
20260508010949 25 67 27.4 30.6 0.00 0.00 0.00
20260508010442 25 64 27.4 30.6 0.00 0.00 0.00
20260508005936 25 65 27.4 30.6 0.00 0.00 0.00
20260508005437 25 66 25.7 30.6 0.00 0.00 0.00
20260508004924 25 64 27.4 30.6 0.00 0.00 0.00
20260508004418 25 55 29.0 32.2 0.00 0.00 0.00
20260508003912 25 58 29.0 32.2 0.00 0.00 0.00
20260508003407 25 58 30.6 32.2 0.00 0.00 0.00
20260508002900 25 49 27.4 30.6 0.00 0.00 0.00
20260508002354 25 54 29.0 32.2 0.00 0.00 0.00
20260508001849 25 55 27.4 30.6 0.00 0.00 0.00
20260508001342 25 55 27.4 30.6 0.00 0.00 0.00
20260508000836 25 55 29.0 30.6 0.00 0.00 0.00
20260508000330 25 52 27.4 30.6 0.00 0.00 0.00
20260507235824 25 55 27.4 29.0 0.00 0.00 0.00
20260507234812 25 57 25.7 29.0 0.00 0.00 0.00
20260507234306 25 54 27.4 29.0 0.00 0.00 0.00
20260507233255 25 58 27.4 32.2 0.00 0.00 0.00
20260507232748 25 64 25.7 29.0 0.00 0.00 0.00
20260507232250 25 60 27.4 29.0 0.00 0.00 0.00
20260507231736 25 52 27.4 30.6 0.00 0.00 0.00
20260507231230 25 62 25.7 29.0 0.00 0.00 0.00
20260507230725 25 54 27.4 30.6 0.00 0.00 0.00
20260507230219 25 58 27.4 29.0 0.00 0.00 0.00
20260507225206 25 56 27.4 30.6 0.00 0.00 0.00
20260507224155 25 56 29.0 30.6 0.00 0.00 0.00
20260507223648 25 60 27.4 30.6 0.00 0.00 0.00
20260507223148 25 61 27.4 30.6 0.00 0.00 0.00
20260507222636 25 57 27.4 30.6 0.00 0.00 0.00
20260507222130 25 52 27.4 29.0 0.00 0.00 0.00
20260507221118 25 53 27.4 30.6 0.00 0.00 0.00
20260507220613 25 51 27.4 29.0 0.00 0.00 0.00
20260507220106 25 50 27.4 30.6 0.00 0.00 0.00
20260507215600 25 55 27.4 29.0 0.00 0.00 0.00
20260507215054 25 57 27.4 30.6 0.00 0.00 0.00
20260507214042 25 48 25.7 29.0 0.00 0.00 0.00
20260507213536 25 54 27.4 29.0 0.00 0.00 0.00
20260507213030 25 59 25.7 30.6 0.00 0.00 0.00
20260507212524 25 58 25.7 29.0 0.00 0.00 0.00
20260507212018 25 55 25.7 29.0 0.00 0.00 0.00
20260507211513 25 51 25.7 29.0 0.00 0.00 0.00
20260507211008 25 58 27.4 29.0 0.00 0.00 0.00
20260507210500 25 62 27.4 29.0 0.00 0.00 0.00
20260507205954 25 67 24.1 27.4 0.00 0.00 0.00
20260507205448 25 53 27.4 29.0 0.00 0.00 0.00
20260507204943 25 53 25.7 29.0 0.00 0.00 0.00
20260507204436 25 51 25.7 27.4 0.00 0.00 0.00
20260507203929 25 60 25.7 29.0 0.00 0.00 0.00